Location: Cucq
(50.4773°N, 1.6202°E)
Time: 17:52:14
(UTC+00:00)

Cosmos 968 Rocket - Pass Details

Date: 07 August 2020
Orbit: 740 x 772 km, 74.0° (Epoch: 24 September)

Event Time Altitude Azimuth Distance (km) Brightness Sun altitude
Exits shadow 00:19:10 62° 181° (S) 831 3.3 -23.0°
Maximum altitude 00:19:59 80° 112° (ESE) 760 3.3 -23.0°
Drops below altitude 10° 00:25:07 10° 26° (NNE) 2,268 6.9 -22.9°
Sets 00:27:29 0° 26° (NNE) 3,199 8.0 -22.9°
